Location: Newark
(42.7133°N, 87.7910°W)
Time: 08:13:15
(UTC+00:00)

Vanguard 1 - Pass Details

Date: 22 October 2019
Orbit: 652 x 3831 km, 34.2° (Epoch: 13 November)

Event Time Altitude Azimuth Distance (km) Brightness Sun altitude
Rises 23:20:53 0° 221° (SW) 3,455 13.8 -4.9°
Reaches altitude 10° 23:23:14 10° 211° (SSW) 2,750 13.0 -5.3°
Maximum altitude 23:29:05 33° 149° (SSE) 2,143 11.6 -6.4°
Drops below altitude 10° 23:38:37 10° 92° (E) 4,554 12.8 -8.1°
Enters shadow 23:39:17 - 91° (E) 4,758 12.9 -8.2°
